Regional Weather Roundup
Issued by NWS

Home | Current Version | Previous Version | Graphics & Text | Print | Product List | Glossary Off
Versions: 1 2 3 4 5 6 7 8 9 10 11 12 13 14 15 16 17 18 19 20 21 22 23 24 25 26 27 28 29 30 31 32 33 34 35 36 37 38 39 40 41 42 43 44 45 46 47 48 49 50

716
ASUS43 KDTX 241101
RWRMI
MICHIGAN HOURLY REGIONAL WEATHER ROUNDUP
NATIONAL WEATHER SERVICE DETROIT/PONTIAC MI
700 AM EDT SAT SEP 24 2016

NOTE: "FAIR" INDICATES FEW OR NO CLOUDS BELOW 12,000 FEET WITH NO
SIGNIFICANT WEATHER AND/OR OBSTRUCTION TO VISIBILITY.

MIZ047>049-052>055-059>063-066>070-074>076-081>083-241200-
SOUTHEAST LOWER MICHIGAN

CITY           SKY/WX    TMP DP  RH WIND       PRES   REMARKS
ADRIAN         CLOUDY    61  56  83 E12       30.21R
ALMA           CLOUDY    48  48 100 N10       30.26S
ANN ARBOR      CLEAR     55  52  89 N6        30.22R
BAD AXE        PTCLDY    45  45  97 CALM      30.27R
CARO           CLEAR     50  48  93 CALM      30.25R
DETROIT CITY   CLEAR     56  52  86 N6        30.22R
DETROIT        PTCLDY    57  52  83 N7        30.22R
FLINT          CLEAR     52  49  89 NE6       30.24S
GROSSE ILE     CLEAR     59  53  79 NE10G16   30.20R
HILLSDALE      CLOUDY    59  54  82 NE6       30.20R
HOWELL         CLOUDY    56  53  90 CALM      30.23R

CITY           SKY/WX    TMP DP  RH WIND       PRES   REMARKS
JACKSON        CLOUDY    56  54  93 NE6       30.22R
LAMBERTVILLE   CLOUDY    62  54  75 NE7       30.20R
LANSING        CLEAR     51  47  86 NE5       30.24S
LAPEER         FAIR      50  48  94 N8        30.25R
MASON          CLEAR     53  51  92 CALM      30.23S
MONROE         CLOUDY    60  55  83 NW6       30.19S
MT. CLEMENS    CLEAR     54  49  85 NE9       30.21R
PONTIAC        PTCLDY    55  51  86 NE6       30.22R
PORT HOPE        N/A     60  48  64 E14       30.25R
PORT HURON     CLEAR     48  48 100 NE5       30.24R
TRI CITIES     CLEAR     49  48  97 CALM      30.26R
MIDLAND        FAIR      46  46  97 CALM      30.25R
TROY           CLEAR     58  50  75 NE7       30.25R
SAGINAW HB     CLEAR     48  46  93 CALM      30.25R
$$
MIZ043>046-050>051-056>058-064>065-071>073-077>080-241200-
SOUTHWEST LOWER MICHIGAN

CITY           SKY/WX    TMP DP  RH WIND       PRES   REMARKS
BATTLE CREEK   CLOUDY    57  52  83 NE9       30.22R
BENTON HARBOR  MOCLDY    58  53  84 E8        30.18R
BIG RAPIDS     CLOUDY    50  48  93 N3        30.26S
COLDWATER      CLOUDY    59  55  88 NE8       30.20R
FREMONT        FAIR      51  49  92 E9        30.24S
HOLLAND        CLEAR     54  50  86 E7        30.23R
GRAND RAPIDS   MOCLDY    52  48  86 E9        30.24R
IONIA          FAIR      50  48  91 NE6       30.24R
KALAMAZOO      CLOUDY    57  51  80 CALM      30.21R
LUDINGTON      CLOUDY    50  49  97 CALM      30.25S
MARSHALL       CLOUDY    56  54  91 NE3       30.22R
MUSKEGON       CLEAR     54  50  86 E8        30.23S
SOUTH HAVEN    MOCLDY    56  54  92 E3        30.20R
$$
MIZ016>042-241200-
NORTHERN LOWER MICHIGAN

CITY           SKY/WX    TMP DP  RH WIND       PRES   REMARKS
ALPENA         CLEAR     40  37  89 CALM      30.30R
BEAVER ISLAND  FOG       45  45  99 CALM      30.31R VSB 1
BELLAIRE       PTCLDY    42  40  96 CALM      30.30S FOG
CADILLAC       CLOUDY    48  46  93 E5        30.26S
CHARLEVOIX     PTCLDY    48  47  97 SE3       30.32S
FRANKFORT      CLOUDY    53  47  80 E3        30.27S
GAYLORD        PTCLDY    43  39  86 CALM      30.30R
GRAYLING       MOCLDY    39  39  99 CALM      30.30R FOG
HARBOR SPRINGS PTCLDY    44  43  97 NE3       30.31R
HOUGHTON LAKE  CLOUDY    41  40  96 NE3       30.29R
MANISTEE       CLOUDY    51  49  92 E5        30.26S
OSCODA         MOCLDY    46  44  91 CALM      30.27R
PELLSTON       PTCLDY    39  37  92 CALM      30.32R
ROGERS CITY    CLEAR     41  39  93 SW3       30.31R
TRAVERSE CITY  CLOUDY    50  47  89 CALM      30.27S
$$
MIZ007>008-015-241200-
EASTERN UPPER MICHIGAN

CITY           SKY/WX    TMP DP  RH WIND       PRES   REMARKS
KINROSS        CLEAR     45  43  93 CALM      30.32R
MACKINAC ISLAN CLEAR     49  49 100 S5        30.30R
NEWBERRY       CLOUDY    40  40  97 CALM      30.31R
S. S. MARIE    CLEAR     46  43  89 NE3       30.32R
MUNISING         N/A     44  43  96 S5        30.29R
$$
MIZ004>006-011>014-085-241200-
CENTRAL UPPER MICHIGAN

CITY           SKY/WX    TMP DP  RH WIND       PRES   REMARKS
MANISTIQUE     PTCLDY    45  42  92 N5        30.29R
ESCANABA       CLOUDY    47  47 100 CALM      30.28R
MENOMINEE      CLOUDY    60  53  77 S8        30.26S
SAWYER-GWINN   CLEAR     39  37  93 CALM      30.29R
$$
MIZ001>003-009>011-084-241200-
WESTERN UPPER MICHIGAN

CITY           SKY/WX    TMP DP  RH WIND       PRES   REMARKS
IRON MOUNTAIN  CLOUDY    51  47  86 NW5       30.27R
HOUGHTON       CLOUDY    54  44  69 E5        30.28R
COPPER HARBOR    N/A     48  47  96 SW3       30.28S
IRONWOOD       CLOUDY    55  49  80 E8        30.23F
$$

ABBREVIATIONS USED IN REMARKS
   TC - TEMPERATURE IN CELSIUS
  WCI - WIND CHILL INDEX
   HX - HEAT INDEX
  VSB - VISIBILITY





USA.gov is the U.S. government's official web portal to all federal, state and local government web resources and services.